Theta_e
300 302 304 304 306 307 309 312 314 318 324 324 324 324 324 323 322 322 320 320 319 318
296 297 297 299 299 300 301 302 305 309 312 317 323 323 322 322 321 321 321 320 320 319
293 294 294 295 294 294 295 296 298 300 303 306 311 315 320 322 322 320 320 320 320 320
290 290 291 290 289 289 290 291 293 295 297 299 301 304 307 311 316 320 320 321 320 319
287 288 286 285 285 286 286 288 290 292 293 295 296 298 300 302 305 309 311 315 318 319
284 283 281 282 282 283 283 284 286 287 289 291 293 293 295 299 300 299 300 304 310 314
281 279 279 280 280 280 281 282 283 284 287 289 290 290 293 292 293 294 296 299 301 303
277 277 278 278 278 278 279 279 281 283 284 285 286 288 287 289 290 290 291 293 296 299
276 276 276 276 276 276 277 277 278 278 280 280 282 284 287 288 286 287 288 289 291 294
274 274 274 274 274 274 274 274 275 276 278 278 279 282 283 285 285 286 287 288 289 290
273 272 273 273 273 273 273 273 274 275 275 276 277 280 282 284 284 285 286 287 288 288
272 271 271 272 271 272 272 273 274 274 274 274 275 279 281 282 281 281 282 285 287 287
271 270 271 271 271 272 272 273 273 273 274 275 275 278 281 282 280 280 281 282 283 285
269 269 271 270 270 271 271 272 272 273 275 276 277 277 280 280 278 278 278 278 278 281
Wind_Speed
14 9 8 10 8 7 7 8 10 9 8 9 10 10 11 9 10 11 11 15 13 11
13 13 11 12 10 8 9 10 12 11 10 11 9 9 10 8 10 11 12 13 13 12
12 13 12 11 13 13 11 12 12 13 12 12 12 12 11 9 10 11 9 9 13 14
12 12 12 11 12 13 12 13 13 12 12 13 13 13 12 12 13 13 13 13 14 14
13 13 13 13 13 14 15 14 13 14 13 13 13 13 13 14 13 14 15 15 16 16
13 14 15 14 14 14 14 14 14 14 14 13 13 14 14 13 14 14 15 15 16 16
13 14 13 13 13 14 14 14 14 14 13 13 14 14 13 16 15 15 14 15 15 16
12 12 11 12 13 12 12 12 13 14 13 14 13 10 17 17 17 18 18 16 15 15
12 12 12 12 13 13 12 12 12 13 13 13 11 22 24 21 18 19 19 18 17 16
12 12 12 12 13 13 14 14 14 13 13 14 14 24 26 26 16 17 18 19 18 18
13 13 13 13 14 14 13 14 13 13 15 14 13 26 28 30 16 16 17 18 19 20
12 12 12 14 15 13 13 13 13 13 15 16 15 27 28 26 17 16 18 16 18 19
11 11 12 12 13 12 11 11 11 13 13 15 15 23 28 24 13 16 15 17 18 23
11 11 11 11 10 10 11 12 12 12 11 11 13 16 27 29 16 15 17 17 17 16
Wind_Direction
32 34 30 27 24 20 10 355 348 349 301 265 256 251 249 248 243 240 240 241 240 243
28 30 22 25 20 11 10 357 346 346 343 334 304 271 266 266 260 249 250 247 247 243
24 25 21 18 18 6 358 359 349 347 346 342 335 333 311 279 264 258 254 254 251 244
23 23 24 17 10 0 353 354 352 342 343 346 338 337 331 318 310 289 275 265 260 257
18 17 16 12 5 359 356 353 348 348 343 340 338 336 333 322 323 319 310 304 287 270
19 12 6 1 358 357 352 351 350 346 343 341 336 332 328 325 332 326 316 311 307 302
14 3 359 351 349 353 351 349 348 344 342 340 336 331 333 329 322 316 307 303 297 296
356 353 351 350 348 347 349 347 341 337 336 339 336 338 333 327 323 318 312 306 300 293
357 349 354 353 346 348 349 347 347 342 338 339 336 331 331 329 318 313 310 307 305 302
356 351 349 349 349 352 349 348 351 350 343 340 333 337 334 329 317 311 307 305 305 305
356 349 350 352 356 351 350 351 349 345 346 337 336 340 340 337 325 319 314 308 307 304
352 345 346 356 353 351 346 345 350 347 343 340 336 341 341 340 331 325 321 320 316 311
349 349 348 348 349 342 343 346 343 341 338 325 318 331 336 343 332 326 326 321 314 308
343 339 345 335 334 337 340 341 340 331 326 324 339 341 346 349 344 332 321 316 313 310